Location: Choisy
(48.7685°N, 2.4187°E)
Time: 22:14:41
(UTC+00:00)

NOSS 3-2 (A) - Pass Details

Date: 24 October 2021
Orbit: 771 x 1437 km, 63.4° (Epoch: 21 November)

Event Time Altitude Azimuth Distance (km) Brightness Sun altitude
Rises 19:54:53 0° 316° (NW) 3,840 7.5 -31.8°
Reaches altitude 10° 19:57:27 10° 322° (NW) 2,976 6.7 -32.2°
Enters shadow 20:03:52 54° 21° (NNE) 1,470 4.3 -33.2°
